MICROMAS-2A (43131 NORAD) Tracking and Keplerian Element Data
This shows tracking and keplerian element data for the satellite.
Feedback or suggestion? Click here.
Element | Value |
Catalog | 43131 |
Name | MICROMAS-2A |
Epoch Orbit | 16821 |
Epoch Day | 20.66786843 |
Epoch Year | 2021 |
RAAN | 97.5326 |
Inclination | 97.4273 |
Eccentricity | 0.0008889 |
Argument of Perigee | 15.8311 |
Mean Anonmoly | 344.3203 |
Mean Motion | 15.26368505 |
Decay Rate | 2.442E-05 |
L1 | 1 43131U 18004W 21020.66786843 .00002442 00000-0 96698-4 0 9992 |
L2 | 2 43131 97.4273 97.5326 0008889 15.8311 344.3203 15.26368505168218 |
Live tracking and technical data element details for MICROMAS-2A (NORAD 43131). MICROMAS-2A can be tracked NOW for your location showing map with azimuth and elevation plus other details from your city location.
Track the satellite on the map from your city or location and see movement details for azimuth, elevation, latitude, longitude, range, height, and movement on the map or in text.
IsCatalogInMostPopularTable: catalog: 43131, numindb: 615
Update: records affected: 1
GetName: 43131 MICROMAS-2A
Hit Count: updated at: Sat, 23 Jan 2021 04:17:31 GMT